Regional Weather Roundup
Issued by NWS

Home | Current Version | Previous Version | Graphics & Text | Print | Product List | Glossary On
Versions: 1 2 3 4 5 6 7 8 9 10 11 12 13 14 15 16 17 18 19 20 21 22 23 24 25 26 27 28 29 30 31 32 33 34 35 36 37 38 39 40 41 42 43 44 45 46 47 48 49 50
000
ASUS45 KABQ 230810
RWRNM
WEATHER ROUNDUP FOR NEW MEXICO
NATIONAL WEATHER SERVICE ALBUQUERQUE NM
100 AM MST SUN NOV 23 2014

NOTE: "FAIR" MEANS FEW OR NO CLOUDS BELOW 12,000 FEET AGL WITH NO
       SIGNIFICANT WEATHER OR OBSTRUCTIONS TO VISION.

      THIS PRODUCT IS RELEASED AS TWO VERSIONS.  ONE VERSION NEAR
      THE TOP OF THE HOUR CONTAINING PRELIMINARY DATA FROM ALBUQUERQUE
      AND OTHER STATIONS.  A FINAL VERSION WITH ADDITIONAL DATA IS
      ISSUED ABOUT 10 MINUTES AFTER THE HOUR.

NMZ501-503-504-510>518-230900-
NORTHWEST PLATEAU/NORTHCENTRAL MOUNTAINS

CITY           SKY/WX    TMP DP  RH WIND       PRES   REMARKS
FARMINGTON     CLOUDY    38  31  76 E6        29.80F WCI  33
LOS ALAMOS     MOCLDY    40  18  40 W7        29.80F
SANTA FE       MOCLDY    40  13  33 SW10      29.78F WCI  33
TAOS           PTCLDY    34  21  60 S6        29.79F WCI  29
ANGEL FIRE     CLOUDY    33  21  60 W10       29.80F WCI  25

$$
NMZ402-403-502-505>509-230900-
WESTCENTRAL MOUNTAINS/SOUTHWEST MOUNTAINS

CITY           SKY/WX    TMP DP  RH WIND       PRES   REMARKS
GALLUP         CLEAR     39  17  41 SW16      29.90R WCI  30
GRANTS         MOCLDY    43  12  28 W22G31    29.87F
SILVER CITY    CLEAR     45  14  29 NW20G25   29.96F

$$
NMZ407-409-411-412-230900-
SOUTHERN DESERTS

CITY           SKY/WX    TMP DP  RH WIND       PRES   REMARKS
LORDSBURG      FAIR      43  19  39 W9        29.97F
DEMING         CLEAR     43  20  39 SW7       29.92F
LAS CRUCES     PTCLDY    49  19  30 SW23G29   29.87F
HOLLOMAN AFB   PTCLDY    46  18  32 SE6       29.82F
ALAMOGORDO     PTCLDY    45  16  31 MISG      29.83F
T OR C         CLEAR     44  17  33 W3        29.84F

$$
NMZ519>523-230900-
CENTRAL VALLEYS/CENTRAL HIGHLANDS

CITY           SKY/WX    TMP DP  RH WIND       PRES   REMARKS
ALBUQUERQUE    CLOUDY    50  17  27 NW9       29.81F
DOUBLE EAGLE   PTCLDY    41  17  37 W7        29.82S
CLINES CORNERS PTCLDY    35  17  47 W12       29.77F WCI  27
BELEN          FAIR      48  17  29 CALM      29.81F
SOCORRO        FAIR      41  18  38 E9        29.82S

$$
NMZ524>526-539-540-230900-
SOUTHCENTRAL MOUNTAINS

CITY           SKY/WX    TMP DP  RH WIND       PRES   REMARKS
RUIDOSO        CLEAR     48  14  25 W16G22    29.81F

$$
NMZ527>531-230900-
NORTHEAST HIGHLANDS/NORTHEAST PLAINS

CITY           SKY/WX    TMP DP  RH WIND       PRES   REMARKS
LAS VEGAS      CLEAR     41  20  43 W13       29.72S
RATON          PTCLDY    46  20  35 NW17G37   29.63F
CLAYTON        MOCLDY    51  20  29 W20       29.53F

$$
NMZ532>537-230900-
EASTCENTRAL PLAINS

CITY           SKY/WX    TMP DP  RH WIND       PRES   REMARKS
TUCUMCARI        N/A     55  18  23 W24       29.58F
CANNON AFB     CLOUDY    45  16  31 SW12      29.75F
CLOVIS AIRPORT CLOUDY    52  18  25 W20       29.61F

$$
NMZ028-029-538-230900-
SOUTHEAST PLAINS

CITY           SKY/WX    TMP DP  RH WIND       PRES   REMARKS
ROSWELL        MOCLDY    45  25  45 SW9       29.70F
CARLSBAD       CLEAR     60  19  20 W20G30    29.72S
HOBBS          PTCLDY    50  25  37 W14       29.71F


$$


USA.gov is the U.S. government's official web portal to all federal, state and local government web resources and services.